This is the latest recevied weather packets stored in our database for station/object OK1TBF-15. If no packets are shown the sender has not sent any weather packets the latest 1 day(s).
| Time | Temp. | Humidity | Pressure | Rain* | Wind** | Luminosity | Snow |
|---|---|---|---|---|---|---|---|
| 1778060179 | 18.89° C | 51% | 1008.4 hPa | - | - | - | - |
| 1778058979 | 17.78° C | 52% | 1008.4 hPa | - | - | - | - |
| 1778058379 | 17.78° C | 53% | 1008.4 hPa | - | - | - | - |
| 1778057779 | 17.78° C | 55% | 1008.4 hPa | - | - | - | - |
| 1778057179 | 17.22° C | 55% | 1008.3 hPa | - | - | - | - |
| 1778056579 | 17.22° C | 57% | 1008.4 hPa | - | - | - | - |
| 1778055979 | 17.22° C | 56% | 1008.4 hPa | - | - | - | - |
| 1778055379 | 16.67° C | 57% | 1008.3 hPa | - | - | - | - |
| 1778054779 | 16.67° C | 58% | 1008.3 hPa | - | - | - | - |
| 1778054179 | 16.11° C | 60% | 1008.3 hPa | - | - | - | - |
| 1778053579 | 16.11° C | 58% | 1008.4 hPa | - | - | - | - |
| 1778052979 | 15.56° C | 61% | 1008.4 hPa | - | - | - | - |
| 1778052379 | 15° C | 63% | 1008.3 hPa | - | - | - | - |
| 1778051779 | 15.56° C | 64% | 1008.4 hPa | - | - | - | - |
| 1778051179 | 15° C | 65% | 1008.2 hPa | - | - | - | - |
| 1778050579 | 15° C | 66% | 1008.2 hPa | - | - | - | - |
| 1778049979 | 14.44° C | 69% | 1008.2 hPa | - | - | - | - |
| 1778049379 | 14.44° C | 71% | 1008.1 hPa | - | - | - | - |
| 1778048779 | 13.89° C | 73% | 1008.2 hPa | - | - | - | - |
| 1778048179 | 13.89° C | 73% | 1008.3 hPa | - | - | - | - |
| 1778047579 | 13.89° C | 74% | 1008 hPa | - | - | - | - |
| 1778046979 | 13.33° C | 77% | 1008 hPa | - | - | - | - |
| 1778046379 | 13.33° C | 80% | 1008 hPa | - | - | - | - |
| 1778045779 | 12.78° C | 81% | 1007.8 hPa | - | - | - | - |
| 1778045179 | 12.78° C | 83% | 1007.8 hPa | - | - | - | - |
* Rain since midnight (hover to see other rain measurements)
** Current wind speed in m/s (hover to see current wind gust speed)